owner,sensor,date,latitude,longitude,vertical_datum,direction_of_sea_water_velocity,sea_water_speed,upward_sea_water_velocity,qcFlag 
CenGOOS,ioos:station:wmo:42067:1,2009-09-01T00:40:00Z,30.0430,-88.6490,2.0,133.87669728592,6.4924879668737,-99999.0,'1111122,1111122,1199999999' 
CenGOOS,ioos:station:wmo:42067:1,2009-09-01T01:40:00Z,30.0430,-88.6490,2.0,158.93927037008,5.3150446846663,-99999.0,'1111122,1111122,1199999999' 
CenGOOS,ioos:station:wmo:42067:1,2009-09-01T03:40:00Z,30.0430,-88.6490,2.0,123.49446391772,9.7489127598928,-99999.0,'1111122,1111122,1199999999' 
CenGOOS,ioos:station:wmo:42067:1,2009-09-01T06:40:00Z,30.0430,-88.6490,2.0,226.87174496529,1.082450922675,-99999.0,'1111122,1111122,1199999999' 
CenGOOS,ioos:station:wmo:42067:1,2009-09-01T14:40:00Z,30.0430,-88.6490,2.0,295.25488714618,5.6721512673764,-99999.0,'1111122,1111122,1199999999' 
CenGOOS,ioos:station:wmo:42067:1,2009-09-01T15:40:00Z,30.0430,-88.6490,2.0,312.8744091117,6.6726081857097,-99999.0,'1111122,1111122,1199999999' 
CenGOOS,ioos:station:wmo:42067:1,2009-09-01T16:40:00Z,30.0430,-88.6490,2.0,264.58692571171,4.982218381404,-99999.0,'1111122,1111122,1199999999' 
CenGOOS,ioos:station:wmo:42067:1,2009-09-01T18:40:00Z,30.0430,-88.6490,2.0,153.06500542791,5.5410919501485,-99999.0,'1111122,1111122,1199999999' 
CenGOOS,ioos:station:wmo:42067:1,2009-09-01T20:40:00Z,30.0430,-88.6490,2.0,118.02968098228,6.2988252873056,-99999.0,'1111122,1111122,1199999999' 
CenGOOS,ioos:station:wmo:42067:1,2009-09-02T12:40:00Z,30.0430,-88.6490,2.0,287.29094552101,10.295265902346,-99999.0,'1111122,1111122,1199999999' 
CenGOOS,ioos:station:wmo:42067:1,2009-09-02T17:40:00Z,30.0430,-88.6490,2.0,252.59191850784,7.587522652355,-99999.0,'1111122,1111122,1199999999' 
CenGOOS,ioos:station:wmo:42067:1,2009-09-02T19:40:00Z,30.0430,-88.6490,2.0,222.2554806022,6.3500314959849,-99999.0,'1111122,1111122,1199999999' 
CenGOOS,ioos:station:wmo:42067:1,2009-09-02T20:40:00Z,30.0430,-88.6490,2.0,155.08603296121,4.0355420949359,-99999.0,'1111122,1111122,1199999999' 
CenGOOS,ioos:station:wmo:42067:1,2009-09-02T21:40:00Z,30.0430,-88.6490,2.0,155.20689274016,11.136471613577,-99999.0,'1111122,1111122,1199999999' 
CenGOOS,ioos:station:wmo:42067:1,2009-09-02T22:40:00Z,30.0430,-88.6490,2.0,105.32576697738,3.5564729719204,-99999.0,'1111122,1111122,1199999999' 
CenGOOS,ioos:station:wmo:42067:1,2009-09-02T23:40:00Z,30.0430,-88.6490,2.0,240.21872888292,3.9058545799863,-99999.0,'1111122,1111122,1199999999' 
CenGOOS,ioos:station:wmo:42067:1,2009-09-03T00:40:00Z,30.0430,-88.6490,2.0,59.266524759382,13.227792710804,-99999.0,'1111122,1111122,1199999999' 
CenGOOS,ioos:station:wmo:42067:1,2009-09-03T01:40:00Z,30.0430,-88.6490,2.0,41.837031498105,13.328053121143,-99999.0,'1111122,1111122,1199999999' 
CenGOOS,ioos:station:wmo:42067:1,2009-09-03T04:40:00Z,30.0430,-88.6490,2.0,282.82439810224,6.3073369974974,-99999.0,'1111122,1111122,1199999999' 
CenGOOS,ioos:station:wmo:42067:1,2009-09-03T06:40:00Z,30.0430,-88.6490,2.0,262.08359827761,3.4125210622061,-99999.0,'1111122,1111122,1199999999' 
CenGOOS,ioos:station:wmo:42067:1,2009-09-03T08:40:00Z,30.0430,-88.6490,2.0,247.58623408934,5.5600359711067,-99999.0,'1111122,1111122,1199999999' 
CenGOOS,ioos:station:wmo:42067:1,2009-09-03T10:40:00Z,30.0430,-88.6490,2.0,310.92421856102,11.73937817774,-99999.0,'1111122,1111122,1199999999' 
CenGOOS,ioos:station:wmo:42067:1,2009-09-03T12:40:00Z,30.0430,-88.6490,2.0,324.93036958204,9.6767763227224,-99999.0,'1111122,1111122,1199999999' 
CenGOOS,ioos:station:wmo:42067:1,2009-09-03T14:40:00Z,30.0430,-88.6490,2.0,303.87969825513,11.731973406039,-99999.0,'1111122,1111122,1199999999' 
CenGOOS,ioos:station:wmo:42067:1,2009-09-03T20:40:00Z,30.0430,-88.6490,2.0,292.4459972877,7.0977249876281,-99999.0,'1111122,1111122,1199999999' 
CenGOOS,ioos:station:wmo:42067:1,2009-09-03T21:40:00Z,30.0430,-88.6490,2.0,313.96501349002,6.6549605558561,-99999.0,'1111122,1111122,1199999999' 
CenGOOS,ioos:station:wmo:42067:1,2009-09-03T22:40:00Z,30.0430,-88.6490,2.0,329.58697663473,5.5310848845412,-99999.0,'1111122,1111122,1199999999' 
CenGOOS,ioos:station:wmo:42067:1,2009-09-04T00:40:00Z,30.0430,-88.6490,2.0,283.17892103605,7.4563798186519,-99999.0,'1111122,1111122,1199999999' 
CenGOOS,ioos:station:wmo:42067:1,2009-09-04T02:40:00Z,30.0430,-88.6490,2.0,301.26890489463,6.7622851167338,-99999.0,'1111122,1111122,1199999999' 
CenGOOS,ioos:station:wmo:42067:1,2009-09-04T08:40:00Z,30.0430,-88.6490,2.0,235.00068376436,6.4334283239965,-99999.0,'1111122,1111122,1199999999' 
CenGOOS,ioos:station:wmo:42067:1,2009-09-04T10:40:00Z,30.0430,-88.6490,2.0,247.60403301158,1.9684765683137,-99999.0,'1111122,1111122,1199999999' 
CenGOOS,ioos:station:wmo:42067:1,2009-09-04T12:40:00Z,30.0430,-88.6490,2.0,228.4422152859,11.305821509293,-99999.0,'1111122,1111122,1199999999' 
CenGOOS,ioos:station:wmo:42067:1,2009-09-04T14:40:00Z,30.0430,-88.6490,2.0,253.29305989238,7.1310167577983,-99999.0,'1111122,1111122,1199999999' 
CenGOOS,ioos:station:wmo:42067:1,2009-09-04T15:40:00Z,30.0430,-88.6490,2.0,263.22663485229,14.752969192674,-99999.0,'1111122,1111122,1199999999' 
CenGOOS,ioos:station:wmo:42067:1,2009-09-04T16:40:00Z,30.0430,-88.6490,2.0,272.61127771498,14.925498316639,-99999.0,'1111122,1111122,1199999999' 
CenGOOS,ioos:station:wmo:42067:1,2009-09-04T18:40:00Z,30.0430,-88.6490,2.0,301.33884629309,12.57454571744,-99999.0,'1111122,1111122,1199999999' 
CenGOOS,ioos:station:wmo:42067:1,2009-09-04T19:40:00Z,30.0430,-88.6490,2.0,270.19077325564,9.0100499443677,-99999.0,'1111122,1111122,1199999999' 
CenGOOS,ioos:station:wmo:42067:1,2009-09-04T22:40:00Z,30.0430,-88.6490,2.0,316.56557207283,8.7996931764693,-99999.0,'1111122,1111122,1199999999' 
CenGOOS,ioos:station:wmo:42067:1,2009-09-05T00:40:00Z,30.0430,-88.6490,2.0,244.43033518725,6.9507481611694,-99999.0,'1111122,1111122,1199999999' 
CenGOOS,ioos:station:wmo:42067:1,2009-09-05T02:40:00Z,30.0430,-88.6490,2.0,187.51214410305,3.6715119501372,-99999.0,'1111122,1111122,1199999999' 
CenGOOS,ioos:station:wmo:42067:1,2009-09-05T03:40:00Z,30.0430,-88.6490,2.0,217.66562119858,7.9207638520537,-99999.0,'1111122,1111122,1199999999' 
CenGOOS,ioos:station:wmo:42067:1,2009-09-05T04:40:00Z,30.0430,-88.6490,2.0,175.35672741688,1.9764867821465,-99999.0,'1111122,1111122,1199999999' 
CenGOOS,ioos:station:wmo:42067:1,2009-09-05T05:40:00Z,30.0430,-88.6490,2.0,193.90053604876,5.1199414059147,-99999.0,'1111122,1111122,1199999999' 
CenGOOS,ioos:station:wmo:42067:1,2009-09-05T10:40:00Z,30.0430,-88.6490,2.0,149.19350504789,7.4979463855112,-99999.0,'1111122,1111122,1199999999' 
CenGOOS,ioos:station:wmo:42067:1,2009-09-05T11:40:00Z,30.0430,-88.6490,2.0,126.81561459291,4.2220018948361,-99999.0,'1111122,1111122,1199999999' 
CenGOOS,ioos:station:wmo:42067:1,2009-09-05T13:40:00Z,30.0430,-88.6490,2.0,33.12373559624,1.6835973390333,-99999.0,'1111122,1111122,1199999999' 
CenGOOS,ioos:station:wmo:42067:1,2009-09-05T15:40:00Z,30.0430,-88.6490,2.0,239.03624346793,4.1982853642886,-99999.0,'1111122,1111122,1199999999' 
CenGOOS,ioos:station:wmo:42067:1,2009-09-05T17:40:00Z,30.0430,-88.6490,2.0,335.00969388868,3.9056497538822,-99999.0,'1111122,1111122,1199999999' 
CenGOOS,ioos:station:wmo:42067:1,2009-09-05T19:40:00Z,30.0430,-88.6490,2.0,31.102823684985,5.6526100166206,-99999.0,'1111122,1111122,1199999999' 
CenGOOS,ioos:station:wmo:42067:1,2009-09-05T21:40:00Z,30.0430,-88.6490,2.0,52.138815910175,7.283090003563,-99999.0,'1111122,1111122,1199999999' 
CenGOOS,ioos:station:wmo:42067:1,2009-09-06T01:40:00Z,30.0430,-88.6490,2.0,218.02977696673,2.2724656213021,-99999.0,'1111122,1111122,1199999999' 
CenGOOS,ioos:station:wmo:42067:1,2009-09-06T05:40:00Z,30.0430,-88.6490,2.0,328.24051991519,1.728872464932,-99999.0,'1111122,1111122,1199999999' 
CenGOOS,ioos:station:wmo:42067:1,2009-09-06T07:40:00Z,30.0430,-88.6490,2.0,210.88732823657,3.8570066113503,-99999.0,'1111122,1111122,1199999999' 
CenGOOS,ioos:station:wmo:42067:1,2009-09-06T14:40:00Z,30.0430,-88.6490,2.0,176.86649756724,5.4882055355098,-99999.0,'1111122,1111122,1199999999' 
CenGOOS,ioos:station:wmo:42067:1,2009-09-06T15:40:00Z,30.0430,-88.6490,2.0,195.48476795018,12.472742280669,-99999.0,'1111122,1111122,1199999999' 
CenGOOS,ioos:station:wmo:42067:1,2009-09-06T16:40:00Z,30.0430,-88.6490,2.0,216.17797526245,12.58691781176,-99999.0,'1111122,1111122,1199999999' 
CenGOOS,ioos:station:wmo:42067:1,2009-09-06T17:40:00Z,30.0430,-88.6490,2.0,255.49497166624,21.639752771231,-99999.0,'1111122,1111122,1199999999' 
CenGOOS,ioos:station:wmo:42067:1,2009-09-06T18:40:00Z,30.0430,-88.6490,2.0,255.72174009913,17.79984831396,-99999.0,'1111122,1111122,1199999999' 
CenGOOS,ioos:station:wmo:42067:1,2009-09-06T19:40:00Z,30.0430,-88.6490,2.0,279.16234704572,11.6182356664,-99999.0,'1111122,1111122,1199999999' 
CenGOOS,ioos:station:wmo:42067:1,2009-09-06T20:40:00Z,30.0430,-88.6490,2.0,309.94308619966,10.669343934844,-99999.0,'1111122,1111122,1199999999' 
CenGOOS,ioos:station:wmo:42067:1,2009-09-06T21:40:00Z,30.0430,-88.6490,2.0,333.02291209156,11.81568872305,-99999.0,'1111122,1111122,1199999999' 
CenGOOS,ioos:station:wmo:42067:1,2009-09-06T22:40:00Z,30.0430,-88.6490,2.0,308.67496185847,5.9049301435326,-99999.0,'1111122,1111122,1199999999' 
CenGOOS,ioos:station:wmo:42067:1,2009-09-06T23:40:00Z,30.0430,-88.6490,2.0,356.46044083145,0.97185389848475,-99999.0,'1111122,1111122,1199999999' 
CenGOOS,ioos:station:wmo:42067:1,2009-09-07T00:40:00Z,30.0430,-88.6490,2.0,333.48778032433,9.7000670100778,-99999.0,'1111122,1111122,1199999999' 
CenGOOS,ioos:station:wmo:42067:1,2009-09-07T03:40:00Z,30.0430,-88.6490,2.0,345.83294447737,2.1246176126541,-99999.0,'1111122,1111122,1199999999' 
CenGOOS,ioos:station:wmo:42067:1,2009-09-07T05:40:00Z,30.0430,-88.6490,2.0,338.09413159654,4.0741624906231,-99999.0,'1111122,1111122,1199999999' 
CenGOOS,ioos:station:wmo:42067:1,2009-09-07T07:40:00Z,30.0430,-88.6490,2.0,20.725558865561,1.9780040444852,-99999.0,'1111122,1111122,1199999999' 
CenGOOS,ioos:station:wmo:42067:1,2009-09-07T10:40:00Z,30.0430,-88.6490,2.0,231.11550356629,5.1772000154524,-99999.0,'1111122,1111122,1199999999' 
CenGOOS,ioos:station:wmo:42067:1,2009-09-07T11:40:00Z,30.0430,-88.6490,2.0,194.03624346793,9.4419118826644,-99999.0,'1111122,1111122,1199999999' 
CenGOOS,ioos:station:wmo:42067:1,2009-09-07T13:40:00Z,30.0430,-88.6490,2.0,219.66875303589,11.796071379913,-99999.0,'1111122,1111122,1199999999' 
CenGOOS,ioos:station:wmo:42067:1,2009-09-07T18:40:00Z,30.0430,-88.6490,2.0,293.52320902046,1.8540765895723,-99999.0,'1111122,1111122,1199999999' 
CenGOOS,ioos:station:wmo:42067:1,2009-09-07T19:40:00Z,30.0430,-88.6490,2.0,330.02629111721,9.6276528811544,-99999.0,'1111122,1111122,1199999999' 
CenGOOS,ioos:station:wmo:42067:1,2009-09-07T21:40:00Z,30.0430,-88.6490,2.0,330.19345352751,8.0672238099609,-99999.0,'1111122,1111122,1199999999' 
CenGOOS,ioos:station:wmo:42067:1,2009-09-07T23:40:00Z,30.0430,-88.6490,2.0,56.516217017486,3.0813795611706,-99999.0,'1111122,1111122,1199999999' 
CenGOOS,ioos:station:wmo:42067:1,2009-09-08T01:40:00Z,30.0430,-88.6490,2.0,335.34207390007,12.63183676272,-99999.0,'1111122,1111122,1199999999' 
CenGOOS,ioos:station:wmo:42067:1,2009-09-08T07:40:00Z,30.0430,-88.6490,2.0,101.35752031982,4.7224781629987,-99999.0,'1111122,1111122,1199999999' 
CenGOOS,ioos:station:wmo:42067:1,2009-09-08T09:40:00Z,30.0430,-88.6490,2.0,183.8937075551,5.743256915723,-99999.0,'1111122,1111122,1199999999' 
CenGOOS,ioos:station:wmo:42067:1,2009-09-08T11:40:00Z,30.0430,-88.6490,2.0,187.30964228189,15.012001865174,-99999.0,'1111122,1111122,1199999999' 
CenGOOS,ioos:station:wmo:42067:1,2009-09-08T15:40:00Z,30.0430,-88.6490,2.0,294.79975215646,8.1297293927904,-99999.0,'1111122,1111122,1199999999' 
CenGOOS,ioos:station:wmo:42067:1,2009-09-08T17:40:00Z,30.0430,-88.6490,2.0,292.40312386155,4.06695217577,-99999.0,'1111122,1111122,1199999999' 
CenGOOS,ioos:station:wmo:42067:1,2009-09-08T21:40:00Z,30.0430,-88.6490,2.0,137.09241983273,5.229005641611,-99999.0,'1111122,1111122,1199999999' 
CenGOOS,ioos:station:wmo:42067:1,2009-09-08T23:40:00Z,30.0430,-88.6490,2.0,51.935922053558,3.4547503527751,-99999.0,'1111122,1111122,1199999999' 
CenGOOS,ioos:station:wmo:42067:1,2009-09-09T00:40:00Z,30.0430,-88.6490,2.0,145.86013727315,10.245628336027,-99999.0,'1111122,1111122,1199999999' 
CenGOOS,ioos:station:wmo:42067:1,2009-09-09T02:40:00Z,30.0430,-88.6490,2.0,84.076598522386,4.5543166337004,-99999.0,'1111122,1111122,1199999999' 
CenGOOS,ioos:station:wmo:42067:1,2009-09-09T03:40:00Z,30.0430,-88.6490,2.0,259.28687697721,0.75312681535051,-99999.0,'1111122,1111122,1199999999' 
CenGOOS,ioos:station:wmo:42067:1,2009-09-09T04:40:00Z,30.0430,-88.6490,2.0,96.672794123723,3.6144847488958,-99999.0,'1111122,1111122,1199999999' 
CenGOOS,ioos:station:wmo:42067:1,2009-09-09T08:40:00Z,30.0430,-88.6490,2.0,161.19420988625,5.8629855875654,-99999.0,'1111122,1111122,1199999999' 
CenGOOS,ioos:station:wmo:42067:1,2009-09-09T10:40:00Z,30.0430,-88.6490,2.0,142.95308197144,5.8260278063188,-99999.0,'1111122,1111122,1199999999' 
CenGOOS,ioos:station:wmo:42067:1,2009-09-09T12:40:00Z,30.0430,-88.6490,2.0,154.28274708387,7.8584031456779,-99999.0,'1111122,1111122,1199999999' 
CenGOOS,ioos:station:wmo:42067:1,2009-09-09T14:40:00Z,30.0430,-88.6490,2.0,243.5396941898,4.892524910514,-99999.0,'1111122,1111122,1199999999' 
CenGOOS,ioos:station:wmo:42067:1,2009-09-09T16:40:00Z,30.0430,-88.6490,2.0,230.453237939,5.9524952750926,-99999.0,'1111122,1111122,1199999999' 
CenGOOS,ioos:station:wmo:42067:1,2009-09-09T18:40:00Z,30.0430,-88.6490,2.0,265.00625601418,8.2713964963602,-99999.0,'1111122,1111122,1199999999' 
CenGOOS,ioos:station:wmo:42067:1,2009-09-09T20:40:00Z,30.0430,-88.6490,2.0,311.9325878775,7.7964158431936,-99999.0,'1111122,1111122,1199999999' 
CenGOOS,ioos:station:wmo:42067:1,2009-09-10T00:40:00Z,30.0430,-88.6490,2.0,105.89640422452,3.2128647652835,-99999.0,'1111122,1111122,1199999999' 
CenGOOS,ioos:station:wmo:42067:1,2009-09-10T02:40:00Z,30.0430,-88.6490,2.0,42.604994483128,7.4452669529037,-99999.0,'1111122,1111122,1199999999' 
CenGOOS,ioos:station:wmo:42067:1,2009-09-10T04:40:00Z,30.0430,-88.6490,2.0,83.806095032849,2.5951493213301,-99999.0,'1111122,1111122,1199999999' 
CenGOOS,ioos:station:wmo:42067:1,2009-09-10T06:40:00Z,30.0430,-88.6490,2.0,35.203790082525,1.994843352246,-99999.0,'1111122,1111122,1199999999' 
CenGOOS,ioos:station:wmo:42067:1,2009-09-10T08:40:00Z,30.0430,-88.6490,2.0,62.502809376106,3.5737095573088,-99999.0,'1111122,1111122,1199999999' 
CenGOOS,ioos:station:wmo:42067:1,2009-09-10T11:40:00Z,30.0430,-88.6490,2.0,233.44319092918,1.8300273222004,-99999.0,'1111122,1111122,1199999999' 
CenGOOS,ioos:station:wmo:42067:1,2009-09-10T12:40:00Z,30.0430,-88.6490,2.0,192.1421775334,6.7510295511129,-99999.0,'1111122,1111122,1199999999' 
CenGOOS,ioos:station:wmo:42067:1,2009-09-10T13:40:00Z,30.0430,-88.6490,2.0,210.18788107359,9.6253831092586,-99999.0,'1111122,1111122,1199999999' 
CenGOOS,ioos:station:wmo:42067:1,2009-09-10T14:40:00Z,30.0430,-88.6490,2.0,227.26156357323,10.034590175986,-99999.0,'1111122,1111122,1199999999' 
CenGOOS,ioos:station:wmo:42067:1,2009-09-10T15:40:00Z,30.0430,-88.6490,2.0,232.62917738635,13.954533313587,-99999.0,'1111122,1111122,1199999999' 
CenGOOS,ioos:station:wmo:42067:1,2009-09-10T16:40:00Z,30.0430,-88.6490,2.0,247.99414613775,6.2449739791291,-99999.0,'1111122,1111122,1199999999' 
CenGOOS,ioos:station:wmo:42067:1,2009-09-10T17:40:00Z,30.0430,-88.6490,2.0,263.41994150144,11.606455100503,-99999.0,'1111122,1111122,1199999999' 
CenGOOS,ioos:station:wmo:42067:1,2009-09-10T18:40:00Z,30.0430,-88.6490,2.0,271.22087278697,6.10138508865,-99999.0,'1111122,1111122,1199999999' 
CenGOOS,ioos:station:wmo:42067:1,2009-09-10T19:40:00Z,30.0430,-88.6490,2.0,273.88640490526,3.6884820726147,-99999.0,'1111122,1111122,1199999999' 
CenGOOS,ioos:station:wmo:42067:1,2009-09-10T20:40:00Z,30.0430,-88.6490,2.0,65.850314278863,4.3507815389881,-99999.0,'1111122,1111122,1199999999' 
CenGOOS,ioos:station:wmo:42067:1,2009-09-10T21:40:00Z,30.0430,-88.6490,2.0,48.972495940751,5.1034302189802,-99999.0,'1111122,1111122,1199999999' 
CenGOOS,ioos:station:wmo:42067:1,2009-09-10T22:40:00Z,30.0430,-88.6490,2.0,23.685221552655,5.8748617004999,-99999.0,'1111122,1111122,1199999999' 
CenGOOS,ioos:station:wmo:42067:1,2009-09-10T23:40:00Z,30.0430,-88.6490,2.0,75.691181140694,2.5490782647851,-99999.0,'1111122,1111122,1199999999' 
CenGOOS,ioos:station:wmo:42067:1,2009-09-11T02:40:00Z,30.0430,-88.6490,2.0,354.07937928595,4.0717195384751,-99999.0,'1111122,1111122,1199999999' 
CenGOOS,ioos:station:wmo:42067:1,2009-09-11T04:40:00Z,30.0430,-88.6490,2.0,168.17851165939,2.6359059163787,-99999.0,'1111122,1111122,1199999999' 
CenGOOS,ioos:station:wmo:42067:1,2009-09-11T06:40:00Z,30.0430,-88.6490,2.0,267.41387241664,11.08128602645,-99999.0,'1111122,1111122,1199999999' 
CenGOOS,ioos:station:wmo:42067:1,2009-09-11T07:40:00Z,30.0430,-88.6490,2.0,236.1891319372,13.154744391283,-99999.0,'1111122,1111122,1199999999' 
CenGOOS,ioos:station:wmo:42067:1,2009-09-11T09:40:00Z,30.0430,-88.6490,2.0,242.07155325098,11.46533034849,-99999.0,'1111122,1111122,1199999999' 
CenGOOS,ioos:station:wmo:42067:1,2009-09-11T14:40:00Z,30.0430,-88.6490,2.0,216.91878481787,11.720004266211,-99999.0,'1111122,1111122,1199999999' 
CenGOOS,ioos:station:wmo:42067:1,2009-09-11T16:40:00Z,30.0430,-88.6490,2.0,253.67903626938,13.202007423116,-99999.0,'1111122,1111122,1199999999' 
CenGOOS,ioos:station:wmo:42067:1,2009-09-11T18:40:00Z,30.0430,-88.6490,2.0,233.47701077473,14.534266407356,-99999.0,'1111122,1111122,1199999999' 
CenGOOS,ioos:station:wmo:42067:1,2009-09-11T20:40:00Z,30.0430,-88.6490,2.0,215.79008047426,9.7637339168988,-99999.0,'1111122,1111122,1199999999' 
CenGOOS,ioos:station:wmo:42067:1,2009-09-11T22:40:00Z,30.0430,-88.6490,2.0,217.22150380185,6.8441288707914,-99999.0,'1111122,1111122,1199999999' 
CenGOOS,ioos:station:wmo:42067:1,2009-09-12T00:40:00Z,30.0430,-88.6490,2.0,235.64338023526,5.2450452810248,-99999.0,'1111122,1111122,1199999999' 
CenGOOS,ioos:station:wmo:42067:1,2009-09-12T06:40:00Z,30.0430,-88.6490,2.0,251.78215436629,18.360315901422,-99999.0,'1111122,1111122,1199999999' 
CenGOOS,ioos:station:wmo:42067:1,2009-09-12T07:40:00Z,30.0430,-88.6490,2.0,243.09037031327,21.56502956177,-99999.0,'1111122,1111122,1199999999' 
CenGOOS,ioos:station:wmo:42067:1,2009-09-12T08:40:00Z,30.0430,-88.6490,2.0,249.6082216755,20.003584678752,-99999.0,'1111122,1111122,1199999999' 
CenGOOS,ioos:station:wmo:42067:1,2009-09-12T14:40:00Z,30.0430,-88.6490,2.0,234.83297158221,17.969936004338,-99999.0,'1111122,1111122,1199999999' 
CenGOOS,ioos:station:wmo:42067:1,2009-09-12T19:40:00Z,30.0430,-88.6490,2.0,248.86082738403,10.925186497264,-99999.0,'1111122,1111122,1199999999' 
CenGOOS,ioos:station:wmo:42067:1,2009-09-12T20:40:00Z,30.0430,-88.6490,2.0,262.28020454913,14.218867746765,-99999.0,'1111122,1111122,1199999999' 
CenGOOS,ioos:station:wmo:42067:1,2009-09-12T21:40:00Z,30.0430,-88.6490,2.0,225.71318863502,6.8170374797268,-99999.0,'1111122,1111122,1199999999' 
CenGOOS,ioos:station:wmo:42067:1,2009-09-12T22:40:00Z,30.0430,-88.6490,2.0,255.55868707071,15.437778337572,-99999.0,'1111122,1111122,1199999999' 
CenGOOS,ioos:station:wmo:42067:1,2009-09-12T23:40:00Z,30.0430,-88.6490,2.0,268.09225966262,13.517492370998,-99999.0,'1111122,1111122,1199999999' 
CenGOOS,ioos:station:wmo:42067:1,2009-09-13T00:40:00Z,30.0430,-88.6490,2.0,247.93532855069,13.336779971192,-99999.0,'1111122,1111122,1199999999' 
CenGOOS,ioos:station:wmo:42067:1,2009-09-13T01:40:00Z,30.0430,-88.6490,2.0,225.29763773572,10.889591360561,-99999.0,'1111122,1111122,1199999999' 
CenGOOS,ioos:station:wmo:42067:1,2009-09-13T02:40:00Z,30.0430,-88.6490,2.0,263.99820264556,16.641216902619,-99999.0,'1111122,1111122,1199999999' 
CenGOOS,ioos:station:wmo:42067:1,2009-09-13T03:40:00Z,30.0430,-88.6490,2.0,250.98507032714,17.494616314741,-99999.0,'1111122,1111122,1199999999' 
CenGOOS,ioos:station:wmo:42067:1,2009-09-13T07:40:00Z,30.0430,-88.6490,2.0,271.575105733,10.914123876885,-99999.0,'1111122,1111122,1199999999' 
CenGOOS,ioos:station:wmo:42067:1,2009-09-13T09:40:00Z,30.0430,-88.6490,2.0,18.236005943561,3.6429658247093,-99999.0,'1111122,1111122,1199999999' 
CenGOOS,ioos:station:wmo:42067:1,2009-09-13T11:40:00Z,30.0430,-88.6490,2.0,12.994616791917,5.6034989069331,-99999.0,'1111122,1111122,1199999999' 
CenGOOS,ioos:station:wmo:42067:1,2009-09-13T13:40:00Z,30.0430,-88.6490,2.0,32.843583014277,4.1301937000581,-99999.0,'1111122,1111122,1199999999' 
CenGOOS,ioos:station:wmo:42067:1,2009-09-13T15:40:00Z,30.0430,-88.6490,2.0,355.02000040369,4.838264151532,-99999.0,'1111122,1111122,1199999999' 
CenGOOS,ioos:station:wmo:42067:1,2009-09-13T17:40:00Z,30.0430,-88.6490,2.0,294.9047688081,3.0870698080866,-99999.0,'1111122,1111122,1199999999' 
CenGOOS,ioos:station:wmo:42067:1,2009-09-13T23:40:00Z,30.0430,-88.6490,2.0,298.12816378585,7.8694154801993,-99999.0,'1111122,1111122,1199999999' 
CenGOOS,ioos:station:wmo:42067:1,2009-09-14T00:40:00Z,30.0430,-88.6490,2.0,286.12259877772,9.3268268987904,-99999.0,'1111122,1111122,1199999999' 
CenGOOS,ioos:station:wmo:42067:1,2009-09-14T01:40:00Z,30.0430,-88.6490,2.0,278.23042316127,12.923103342464,-99999.0,'1111122,1111122,1199999999' 
CenGOOS,ioos:station:wmo:42067:1,2009-09-14T03:40:00Z,30.0430,-88.6490,2.0,272.77167923486,12.614757231116,-99999.0,'1111122,1111122,1199999999' 
CenGOOS,ioos:station:wmo:42067:1,2009-09-14T05:40:00Z,30.0430,-88.6490,2.0,289.74808916384,11.039248162805,-99999.0,'1111122,1111122,1199999999' 
CenGOOS,ioos:station:wmo:42067:1,2009-09-14T07:40:00Z,30.0430,-88.6490,2.0,309.89783474764,5.5657703869276,-99999.0,'1111122,1111122,1199999999' 
CenGOOS,ioos:station:wmo:42067:1,2009-09-14T10:40:00Z,30.0430,-88.6490,2.0,344.0120998194,9.2581045576295,-99999.0,'1111122,1111122,1199999999' 
CenGOOS,ioos:station:wmo:42067:1,2009-09-14T11:40:00Z,30.0430,-88.6490,2.0,33.263404714217,5.2143264186278,-99999.0,'1111122,1111122,1199999999' 
CenGOOS,ioos:station:wmo:42067:1,2009-09-14T12:40:00Z,30.0430,-88.6490,2.0,6.0993702729366,6.3056958378913,-99999.0,'1111122,1111122,1199999999' 
CenGOOS,ioos:station:wmo:42067:1,2009-09-14T13:40:00Z,30.0430,-88.6490,2.0,104.84278126146,4.9967289300101,-99999.0,'1111122,1111122,1199999999' 
CenGOOS,ioos:station:wmo:42067:1,2009-09-14T14:40:00Z,30.0430,-88.6490,2.0,65.020019143718,4.6885925393448,-99999.0,'1111122,1111122,1199999999' 
CenGOOS,ioos:station:wmo:42067:1,2009-09-14T15:40:00Z,30.0430,-88.6490,2.0,136.16438804012,10.439051681068,-99999.0,'1111122,1111122,1199999999' 
CenGOOS,ioos:station:wmo:42067:1,2009-09-14T16:40:00Z,30.0430,-88.6490,2.0,146.70499588169,14.882960055043,-99999.0,'1111122,1111122,1199999999' 
CenGOOS,ioos:station:wmo:42067:1,2009-09-14T17:40:00Z,30.0430,-88.6490,2.0,123.32157014387,12.505974572179,-99999.0,'1111122,1111122,1199999999' 
CenGOOS,ioos:station:wmo:42067:1,2009-09-14T18:40:00Z,30.0430,-88.6490,2.0,110.20010250652,17.1445180743,-99999.0,'1111122,1111122,1199999999' 
CenGOOS,ioos:station:wmo:42067:1,2009-09-14T19:40:00Z,30.0430,-88.6490,2.0,113.05540643385,40.983491798528,-99999.0,'1111122,1111122,1199999999' 
CenGOOS,ioos:station:wmo:42067:1,2009-09-14T20:40:00Z,30.0430,-88.6490,2.0,137.32071690848,26.892114085732,-99999.0,'1111122,1111122,1199999999' 
CenGOOS,ioos:station:wmo:42067:1,2009-09-14T21:40:00Z,30.0430,-88.6490,2.0,141.11077455298,45.634339044189,-99999.0,'1111122,1111122,1199999999' 
CenGOOS,ioos:station:wmo:42067:1,2009-09-15T01:40:00Z,30.0430,-88.6490,2.0,216.52625522875,19.674353864867,-99999.0,'1111122,1111122,1199999999' 
CenGOOS,ioos:station:wmo:42067:1,2009-09-15T03:40:00Z,30.0430,-88.6490,2.0,254.12154490731,28.216626304362,-99999.0,'1111122,1111122,1199999999' 
CenGOOS,ioos:station:wmo:42067:1,2009-09-15T05:40:00Z,30.0430,-88.6490,2.0,299.03557068164,32.16219053485,-99999.0,'1111122,1111122,1199999999' 
CenGOOS,ioos:station:wmo:42067:1,2009-09-15T06:40:00Z,30.0430,-88.6490,2.0,327.71081698541,37.664306710731,-99999.0,'1111122,1111122,1199999999' 